The Legends Meet 2015 vs The Legends Meet 2013

Aggregate Data Points
Difference This Meet That Meet
Overall Athletes -61 869 930
Overall Average -58.60 21:18.79 22:17.39
1st-10th Place -40.18 15:55.20 16:35.38
1st-25th Place -38.37 16:09.77 16:48.14
1st-50th Place -33.79 16:29.91 17:03.71
1st-100th Place -31.98 16:52.89 17:24.87
Common Athletes -- -- 223
Ran Faster 153 188 35
Ran Season Best 75 132 57
Average Time -1:25.17 20:33.73 21:58.90
Median Time -1:19.30 20:02.90 21:22.20
Middle 80% Times -1:19.63 20:21.18 21:40.81
Top 10% Times -1:01.69 16:18.20 17:19.89
Top 25% Times -1:14.87 16:55.13 18:10.01
Top 50% Times -1:23.66 17:54.56 19:18.22
Bottom 50% Times -1:25.93 23:01.88 24:27.81
Bottom 25% Times -1:43.60 25:02.29 26:45.88
Bottom 10% Times -2:34.18 26:49.93 29:24.11
Average Difference -1:25.17 -- --
Median Difference -1:16.00 -- --
Middle 80% Difference -1:16.18 -- --
Top 10% Difference -52.52 -- --
Top 50% Difference -1:16.36 -- --
Top 25% Difference -1:03.22 -- --
Top 50% Difference -1:16.36 -- --
Bottom 50% Difference -1:33.91 -- --
Bottom 25% Difference -2:02.09 -- --
Bottom 10% Difference -3:19.06 -- --

Performances of Common Athletes
Athlete Team Difference This Meet That Meet
Tristan Dahmen Maplewood -1:12.20 15:24.80 16:37.00
Andre Bollam-Godbott Brunswick -1:20.80 15:35.50 16:56.30
Clark Bookman Field -1:10.80 15:55.50 17:06.30
Chase Kern Canfield -53.60 16:04.70 16:58.30
Matt Rozic Austintown-Fitch -1:28.20 16:06.00 17:34.20
Ian Harris Mount Lebanon -1:06.10 16:14.30 17:20.40
Todd Gunzenhauser Mount Lebanon -34.70 16:14.40 16:49.10
Tommy Carballada Chardon NDCL -1:15.90 16:15.20 17:31.10
Joshua Kalapos Mount Lebanon -2:38.50 16:16.40 18:54.90
Jacob Ondash Crestwood -1:12.50 16:17.70 17:30.20
Jake Hall Maplewood -59.10 16:18.00 17:17.10
Craig Schumacher Austintown-Fitch -53.20 16:18.40 17:11.60
Sam Oliphant Crestwood -2:17.40 16:21.10 18:38.50
Daniel Loomis McDonald -1:18.60 16:21.60 17:40.20
Nate Keeney Maplewood -2:04.60 16:22.70 18:27.30
James Williams Ak. Springfield -1:02.10 16:25.90 17:28.00
Tim Bizon Brunswick -52.30 16:27.10 17:19.40
Owen Reeher Badger -38.40 16:27.10 17:05.50
Andrew Green Austintown-Fitch -1:06.40 16:34.00 17:40.40
Brian Heller Akron SVSM -36.30 16:41.50 17:17.80
Derek Basinger Girard -28.40 16:42.90 17:11.30
Brendan Cheng Gilmour Academy -2:20.50 16:45.20 19:05.70
Lucas Garland McDonald -1:20.10 16:48.50 18:08.60
Mike Shipman Maplewood -1:27.80 16:49.90 18:17.70
Marco Mediati McDonald -37.80 16:50.10 17:27.90
C.j. Seitz McDonald -2:22.30 16:51.50 19:13.80
Ben Mosher Trinity -3:05.70 16:51.60 19:57.30
Zack Temple Newbury -2:04.50 16:52.10 18:56.60
Nick Cowger Maplewood -57.40 16:55.30 17:52.70
Zachary Dewit Mount Lebanon -1:01.40 17:01.30 18:02.70
Micah Jones Girard -2:04.10 17:01.60 19:05.70
Anthony Linert Austintown-Fitch -54.10 17:02.80 17:56.90
Rob Doncourt Mount Lebanon -3:06.00 17:06.20 20:12.20
Brett Lowden Field -3:40.50 17:10.00 20:50.50
Patrick Walter Akron SVSM -27.30 17:13.60 17:40.90
Zachary Asher Gilmour Academy -2:43.40 17:14.70 19:58.10
Cody Reeher Badger -55.10 17:17.40 18:12.50
Conner Mcintyer Akron SVSM -57.80 17:17.70 18:15.50
Chad Whetro Lakeside +21.80 17:39.60 17:17.80
Dan Bridavsky Berkshire -50.20 17:23.70 18:13.90
Ben Giulivo Trinity -2:49.20 17:24.30 20:13.50
John Gudz Trinity -1:59.20 17:26.20 19:25.40
Nick Downing Gar. Garfield -17.60 17:26.30 17:43.90
Dylan Mckean War. Champion -2:25.40 17:26.50 19:51.90
Nate Sahr CVCA -4:38.20 17:31.70 22:09.90
Jack Schaeffer Padua Franciscan -1:30.30 17:34.60 19:04.90
Tyler Kraft Brunswick -1:14.80 17:34.70 18:49.50
Ty Reeher Badger -1:17.10 17:34.90 18:52.00
Jonathan Michaels Ak. Springfield -1:17.40 17:36.20 18:53.60
Jacob Turk Berkshire -7:42.40 17:36.70 25:19.10
James Peace War. Champion -44.70 17:38.00 18:22.70
Tristan Phillips Ak. Springfield -1:02.50 17:43.20 18:45.70
Ben Stebelton South Range -1:09.30 17:44.50 18:53.80
Bailey Wolf Brunswick -3:24.90 17:46.00 21:10.90
Stephen Porter Mount Lebanon -44.80 17:52.20 18:37.00
Ken Begley Maplewood -1:07.60 17:53.90 19:01.50
Ryan Duffett Shaker Hts. -2:04.00 17:57.10 20:01.10
Luke Carlson Akron SVSM -1:24.50 17:59.40 19:23.90
Seth Zarlinga United -6.80 18:00.90 18:07.70
Kalee Soehnlen St. Thomas Aquinas -2:09.60 18:01.00 20:10.60
Tyler Brown Girard -2:03.60 18:02.00 20:05.60
Rebecca Craddock Brunswick -1:48.80 18:04.00 19:52.80
Hannah Markel Gilmour Academy -3:01.30 18:04.70 21:06.00
Kevin Cummings Kirtland -3:24.50 18:04.80 21:29.30
Athena Welsh St. Thomas Aquinas -1:20.40 18:05.00 19:25.40
Josh Ogorzaly Brunswick -24.90 18:06.80 18:31.70
Mitch Bezik Field -4:08.30 18:07.80 22:16.10
Paul Bogdan Jefferson Area -43.20 18:08.50 18:51.70
Zack Fedyski McDonald -17.00 18:12.90 18:29.90
Rachel Iacofano Akron SVSM -1:10.50 18:21.60 19:32.10
Bill Clark Maplewood -59.90 18:22.80 19:22.70
Jayson Breier Chardon NDCL -1:27.70 18:23.00 19:50.70
Matthew Cardello Padua Franciscan -2:51.00 18:24.20 21:15.20
Jordan Chipps Girard -2:24.60 18:29.40 20:54.00
Austin Simmons Jefferson Area -3:13.30 18:29.50 21:42.80
Carter Wisser East Palestine -1:51.80 18:30.00 20:21.80
Ethan Senor Pymatuning Valley -1:53.80 18:30.60 20:24.40
Brian Patrick South Range -2:52.50 18:31.50 21:24.00
Dequan Williams Euclid -30.70 18:32.80 19:03.50
Ben Takitch Trinity -2:44.90 18:35.40 21:20.30
Mimi Reimers Shaker Hts. -1:43.20 18:38.80 20:22.00
Alex Ventura Maplewood -34.50 18:48.20 19:22.70
James Molnar East Palestine -2:41.00 18:49.50 21:30.50
Jaren Gilliam Euclid -1:49.40 18:50.50 20:39.90
Heidi Hoffman McDonald -1:22.50 18:53.40 20:15.90
Joshua Toth Mineral Ridge -47.60 18:55.20 19:42.80
Scott Stanley Gar. Garfield -1:05.50 18:55.30 20:00.80
Vanessa Pasadyn Brunswick -16.30 18:59.70 19:16.00
Andrew Ketterer Padua Franciscan -4:03.90 19:04.80 23:08.70
Preston Caroll Badger -10:11.10 19:10.20 29:21.30
Caleb Toth Mineral Ridge -1:20.00 19:12.10 20:32.10
Mike Nozak Trinity -22.50 19:12.60 19:35.10
Lorenzo Fain Struthers -2:24.10 19:13.50 21:37.60
Jake Suttell Streetsboro -7.60 19:14.50 19:22.10
Liam Eitman Akron SVSM -45.00 19:21.20 20:06.20
Alex Ricketts McDonald -46.80 19:21.60 20:08.40
Ryan Conroy Field -25.50 19:22.30 19:47.80
Ryan Rohr Field -3:51.60 19:28.70 23:20.30
Josh Mansfield Kirtland -50.60 19:32.40 20:23.00
Kacee Soehnlen St. Thomas Aquinas -1:23.90 19:35.60 20:59.50
Anthony Golan Lakeside -1:44.20 19:37.30 21:21.50
Travis Gibson Gar. Garfield -3:18.90 19:38.10 22:57.00
Mollie Pierson South Range -8.60 19:38.70 19:47.30
William Conn Lordstown -50.80 19:39.10 20:29.90
Xena Maali South Range -1:21.70 19:44.40 21:06.10
Kylie Scott Berkshire -1:27.20 19:44.50 21:11.70
Sarah Holzman CVCA -2:22.00 19:46.30 22:08.30
Mia Brady Akron SVSM +12.90 19:59.50 19:46.60
Matt Benda Chardon NDCL -1:56.70 19:49.50 21:46.20
Nathan Forney Waterloo -1:40.20 19:54.80 21:35.00
Catherine Dolohanty Gilmour Academy +4:32.60 24:32.30 19:59.70
Sam Moody Field +0.30 20:02.00 20:01.70
Domenique Hall Girard -27.90 20:02.90 20:30.80
Sam Stimson Jefferson Area -1:25.40 20:04.90 21:30.30
Saydi Lappe Pymatuning Valley -2:19.90 20:06.80 22:26.70
Zach Young United -8.10 20:09.90 20:18.00
Lucas Wesdemiotis Trinity -37.60 20:10.30 20:47.90
Abbie Volpone Lakeside -2:14.20 20:11.00 22:25.20
Bree Zedar Gilmour Academy +26.30 20:39.70 20:13.40
Melina Edic Crestwood -1:16.00 20:14.70 21:30.70
Melissa Soltisz Crestwood -1:13.90 20:15.00 21:28.90
Rachel Perry McDonald -3.50 20:17.10 20:20.60
Emily Fromel South Range -56.30 20:17.20 21:13.50
Tyler Dunbar Pymatuning Valley -3:14.50 20:18.00 23:32.50
Ally Nordstrom Shaker Hts. -4:54.90 20:23.00 25:17.90
Brenna Rupe McDonald -56.00 20:25.00 21:21.00
Ryan Crump Mineral Ridge -9.10 20:29.20 20:38.30
Thomas Josey Ak. Springfield -2:27.10 20:30.70 22:57.80
Matt Wilson Ak. Springfield -1:05.90 20:31.40 21:37.30
Jenna Scott Brunswick +7.80 20:39.90 20:32.10
Regina Neugebauer Akron SVSM +13.50 20:45.70 20:32.20
Scott Sharples Girard -3:06.90 20:33.60 23:40.50
Bella Wagner Crestwood +51.40 21:31.60 20:40.20
Madelyn Kimpel South Range -4:40.10 20:45.50 25:25.60
Vanessa Perry McDonald -1:17.60 20:54.10 22:11.70
Jamie Zickes Padua Franciscan -1:03.90 20:54.70 21:58.60
Griffin Redeker Southeast -1:45.30 20:54.80 22:40.10
Mariah Coulter Gar. Garfield -2:10.50 21:05.70 23:16.20
Sumner Wilson Field -27.70 21:12.20 21:39.90
Raquel Markulin Canfield +1:52.90 23:09.60 21:16.70
Mackenzie Clinger Chardon NDCL +14.80 21:32.50 21:17.70
Nicole Wright CVCA +36.80 21:54.80 21:18.00
Evie Head Crestwood +1:24.70 22:46.90 21:22.20
Tatum Flesch Mineral Ridge -1:20.70 21:22.80 22:43.50
Yasmeen Elnobani McDonald +55.80 22:21.80 21:26.00
Dianna Yeager Austintown-Fitch +43.70 22:09.80 21:26.10
Claire Cary Beaumont -1:11.90 21:29.80 22:41.70
Jennifer Mcclune Canfield -38.50 21:38.30 22:16.80
Breanna Laverie Austintown-Fitch -4:29.30 21:38.70 26:08.00
Christophe Munz Euclid -1:36.40 21:46.20 23:22.60
Mike Coup Lakeside -1:50.50 21:48.00 23:38.50
Katelyn Kato Euclid -29.30 21:52.80 22:22.10
Brynn Hofmeister United -3.70 21:56.00 21:59.70
Kelly Patrick South Range +26.10 22:24.30 21:58.20
Thomas Dollard Trinity -1:11.30 22:01.70 23:13.00
Rachel Rosteck Canfield -1:54.90 22:05.80 24:00.70
Brandy Watkins Maplewood -4:45.70 22:07.50 26:53.20
Hannah Hall East Palestine +1:35.80 23:47.10 22:11.30
Christine Walsh Kirtland -1:02.30 22:11.50 23:13.80
Jada Gilliam Euclid -2:35.80 22:13.50 24:49.30
Lauren Walker Akron SVSM -42.90 22:16.30 22:59.20
Alena Prcela Beaumont +30.90 22:49.70 22:18.80
Isabelle Moyer Canfield -50.80 22:21.00 23:11.80
Kaylee Martin Gar. Garfield -3:56.90 22:27.80 26:24.70
Nick Grimm East Palestine -4:38.10 22:32.50 27:10.60
Mason Martuccio Girard -3:14.80 22:33.40 25:48.20
Michael Rovnyak Ursuline -2:19.50 22:37.10 24:56.60
Caitlyn Franczkowski Field -36.10 22:37.40 23:13.50
Sarah Spalding South Range -1:02.70 22:39.30 23:42.00
Francesca Bowman Gar. Garfield -1:31.70 22:46.00 24:17.70
Katya Ferguson CVCA -39.20 22:47.70 23:26.90
Sienna Drillien CVCA +14.80 23:08.50 22:53.70
Diamond Thomas Austintown-Fitch -2:40.40 22:54.70 25:35.10
Hannah Jones McDonald +9.90 23:07.30 22:57.40
Lana Wallace Akron SVSM +3:13.20 26:19.90 23:06.70
Manny Salem CVCA +1:30.90 24:37.80 23:06.90
Alexis Pacholke Jefferson Area -49.60 23:10.70 24:00.30
Katelyn Bevilacqua Badger -38.70 23:11.60 23:50.30
Allie Sakacs South Range -3:48.70 23:20.00 27:08.70
Olivia Wolfe Jackson-Milton +7:16.10 30:39.50 23:23.40
Mckenzie Pile CVCA -41.20 23:24.10 24:05.30
Megan Cymanski Crestwood +38.60 24:06.80 23:28.20
Hailee Olson Field +20.60 23:50.70 23:30.10
Katie O'brien Austintown-Fitch -2.50 23:32.50 23:35.00
Colin Edgley Akron SVSM -3:10.10 23:34.90 26:45.00
Jessica Warner Beaumont +26.90 24:03.00 23:36.10
Daci Statler Lordstown -1:29.20 23:39.40 25:08.60
Kayla Greenwood Struthers -43.30 23:42.70 24:26.00
Morgan Lewis McDonald -15.40 23:43.80 23:59.20
Ellie Ragan Mineral Ridge -41.80 23:45.20 24:27.00
Jake Knowlton Girard +23.10 24:10.50 23:47.40
Michaela Barry Akron SVSM -3:19.10 23:48.00 27:07.10
Katie Neugebauer Akron SVSM -5:09.20 23:52.00 29:01.20
Christie Kaminchak Padua Franciscan -12.60 23:57.40 24:10.00
Colleen Brennan Padua Franciscan -57.60 23:58.00 24:55.60
Leah Kingston Jefferson Area +2:02.10 26:00.50 23:58.40
Kaylee Lloyd Pymatuning Valley -2:06.70 24:00.40 26:07.10
Nate Adams East Palestine -12:46.70 24:00.70 36:47.40
Maria Razo South Range +7.40 24:10.40 24:03.00
Jennette Timko McDonald +55.00 24:58.70 24:03.70
Noah Goldsmith Pymatuning Valley -6:24.40 24:10.90 30:35.30
Alexis Zahuranec Chardon NDCL -26.60 24:20.80 24:47.40
Kirsten Adams South Range +1:27.60 25:52.20 24:24.60
Elizabeth Brett Gilmour Academy -3:37.20 24:32.40 28:09.60
Pamela Beedle McDonald +8.50 24:45.80 24:37.30
Leslie Kolb CVCA -4:34.10 24:57.70 29:31.80
Alyssa Szuch Padua Franciscan -2:25.60 25:09.20 27:34.80
Grace Wright Newbury -30.70 25:10.10 25:40.80
Heather Kirk Jackson-Milton -2:52.30 25:12.20 28:04.50
Hannah Trent Gar. Garfield +48.40 26:01.00 25:12.60
Adrianna Delucia South Range -3:35.90 25:15.80 28:51.70
James Salmen United -50.00 25:25.70 26:15.70
Darcie Bush CVCA +33.80 26:20.60 25:46.80
Caroline Popa St. Thomas Aquinas -7:01.60 26:05.20 33:06.80
Josh Goldsmith Pymatuning Valley -2:43.90 26:08.80 28:52.70
Miranda Evans Field -52.10 26:40.50 27:32.60
Hannah Standley South Range -3:17.90 26:44.90 30:02.80
Hannah Crouch Maplewood -10:57.00 26:46.30 37:43.30
Rebecca Bock United +4:16.30 31:05.20 26:48.90
Tyler Mcdowell Badger -1:46.60 27:10.00 28:56.60
Alex Musser Ursuline -28.10 28:27.70 28:55.80
Maddie Sanoba Trinity +2:56.30 31:28.20 28:31.90
Bridget Stark Kirtland -17.40 29:08.50 29:25.90